Вернуться в каталог

STARLINK-33533

АктивенСвязьVLEO
NORAD 63387·PAYLOAD·🇺🇸 United States

Запущен Mar 26, 2025 с Vandenberg Space Force Base

Loading…

Ближайшие Пролёты (ближайшие 24 часа)

TLE

СвежийSource: CelesTrak SupGP

Эпоха: Sep 15, 2026, 02:27 UTC

1 63387C 25063AA  26258.10256944 -.00025485  00000+0 -75288-3 0  2583
2 63387  53.1574 247.0075 0001290  93.4623 101.2867 15.34407242    16

Отслеживайте STARLINK-33533 в реальном времени с AllMySat

Download on the App Store